Weather History for Carroll, IA

Change the Weather History Date:

Wednesday, November 6, 2013

  Actual Average Record
Temperature  
Mean Temperature 36 °F -  
Max Temperature 42 °F 49 °F 77 °F (2001)
Min Temperature 30 °F 29 °F 1 °F (1991)
Degree Days  
Heating Degree Days 29    
Moisture  
Dew Point 31 °F    
Average Humidity 86    
Maximum Humidity 100    
Minimum Humidity 53    
Precipitation  
Precipitation 0.00 in - - ()
Sea Level Pressure  
Sea Level Pressure 30.14 in    
Wind  
Wind Speed 17 mph (WNW)    
Max Wind Speed 26 mph    
Max Gust Speed 32 mph    
Visibility 9 miles    
Events Rain    
Averages and records for this station are not official NWS values.
T = Trace of Precipitation, MM = Missing Value Source: NWS Daily Summary

Daily Weather History Graph

Daily Weather History Graph

Search for Another Location

Airport:

Trip Planner

Search our weather history database for the weather conditions in past years. The results will help you decide how hot, cold, wet, or windy it might be!

Date:

Astronomy

Nov. 06, 2013 Rise Set
Actual Time 6:58 AM CST 5:06 PM CST
Civil Twilight 6:28 AM CST 5:36 PM CST
Nautical Twilight 5:55 AM CST 6:09 PM CST
Astronomical Twilight 5:22 AM CST 6:42 PM CST
Moon 10:15 AM CST (11/6) 8:10 PM CST (11/6)
Length of Visible Light 11h 07m
Length of Day
10h 08m
Waxing Crescent, 14% of the Moon is Illuminated
Nov 6
Waxing Crescent
Nov 9
First Quarter
Nov 17
Full
Nov 25
Last Quarter
Dec 2
New

Hourly Weather History & Observations

Time (CST) Temp. Windchill Dew Point Humidity Pressure Visibility Wind Dir Wind Speed Gust Speed Precip Events Conditions
12:15 AM 35.6 °F 23.4 °F 35.6 °F 100% 29.94 in 2.5 mi North 25.3 mph - N/A   Light Drizzle
12:35 AM 35.6 °F 24.2 °F 35.6 °F 100% 29.96 in 2.0 mi North 21.9 mph 28.8 mph N/A Rain Light Rain
12:55 AM 35.6 °F 24.5 °F 35.6 °F 100% 29.97 in 2.0 mi North 20.7 mph 29.9 mph N/A Rain Light Rain
1:15 AM 35.6 °F 24.2 °F 35.6 °F 100% 29.96 in 2.5 mi NNW 21.9 mph 28.8 mph N/A Rain Light Rain
1:55 AM 33.8 °F 21.6 °F 33.8 °F 100% 29.98 in 3.0 mi NNW 23.0 mph 29.9 mph N/A Rain Light Rain
2:15 AM 33.8 °F 21.3 °F 33.8 °F 100% 30.00 in 3.0 mi NNW 24.2 mph 29.9 mph N/A Rain Light Rain
2:35 AM 33.8 °F 22.2 °F 33.8 °F 100% 30.01 in 3.0 mi NNW 20.7 mph 29.9 mph N/A Rain Light Rain
2:55 AM 33.8 °F 21.6 °F 33.8 °F 100% 30.00 in 3.0 mi NNW 23.0 mph 31.1 mph N/A   Overcast
3:15 AM 33.8 °F 22.2 °F 33.8 °F 100% 30.01 in 8.0 mi NNW 20.7 mph - N/A   Light Drizzle
3:35 AM 33.8 °F 21.6 °F 33.8 °F 100% 30.00 in 10.0 mi NNW 23.0 mph 29.9 mph N/A   Overcast
3:55 AM 33.8 °F 20.8 °F 33.8 °F 100% 30.01 in 10.0 mi NNW 26.5 mph 32.2 mph N/A   Overcast
4:15 AM 33.8 °F 21.9 °F 33.8 °F 100% 30.03 in 10.0 mi NNW 21.9 mph 27.6 mph N/A   Overcast
4:35 AM 33.8 °F 22.8 °F 33.8 °F 100% 30.05 in 10.0 mi North 18.4 mph 25.3 mph N/A   Overcast
4:55 AM 33.8 °F 23.2 °F 33.8 °F 100% 30.05 in 10.0 mi North 17.3 mph 23.0 mph N/A   Overcast
5:15 AM 33.8 °F 23.2 °F 33.8 °F 100% 30.04 in 10.0 mi NNW 17.3 mph - N/A   Overcast
5:35 AM 33.8 °F 23.5 °F 32.0 °F 93% 30.06 in 10.0 mi NNW 16.1 mph 25.3 mph N/A   Overcast
5:55 AM 32.0 °F 21.6 °F 32.0 °F 100% 30.06 in 10.0 mi NNW 15.0 mph - N/A   Overcast
6:15 AM 32.0 °F 21.2 °F 32.0 °F 100% 30.06 in 10.0 mi NNW 16.1 mph - N/A   Mostly Cloudy
6:35 AM 32.0 °F 22.1 °F 32.0 °F 100% 30.07 in 10.0 mi NNW 13.8 mph 19.6 mph N/A   Scattered Clouds
6:55 AM 32.0 °F 22.1 °F 32.0 °F 100% 30.07 in 10.0 mi NNW 13.8 mph - N/A   Clear
7:15 AM 32.0 °F 20.5 °F 32.0 °F 100% 30.09 in 10.0 mi NW 18.4 mph - N/A   Clear
7:35 AM 32.0 °F 21.2 °F 32.0 °F 100% 30.10 in 10.0 mi NW 16.1 mph 24.2 mph N/A   Clear
7:55 AM 32.0 °F 20.8 °F 32.0 °F 100% 30.12 in 10.0 mi NW 17.3 mph 24.2 mph N/A   Partly Cloudy
8:15 AM 32.0 °F 21.2 °F 30.2 °F 93% 30.13 in 10.0 mi NW 16.1 mph 23.0 mph N/A   Mostly Cloudy
8:35 AM 32.0 °F 21.6 °F 30.2 °F 93% 30.15 in 10.0 mi NW 15.0 mph 20.7 mph N/A   Overcast
8:55 AM 33.8 °F 24.8 °F 28.4 °F 81% 30.15 in 10.0 mi NW 12.7 mph - N/A   Overcast
9:15 AM 33.8 °F 24.8 °F 30.2 °F 87% 30.16 in 10.0 mi NW 12.7 mph - N/A   Overcast
9:35 AM 33.8 °F 25.3 °F 30.2 °F 87% 30.17 in 10.0 mi NW 11.5 mph 18.4 mph N/A   Overcast
9:55 AM 35.6 °F 27.1 °F 30.2 °F 81% 30.17 in 10.0 mi NW 12.7 mph 19.6 mph N/A   Overcast
10:15 AM 35.6 °F 27.1 °F 32.0 °F 87% 30.18 in 10.0 mi WNW 12.7 mph 20.7 mph N/A   Overcast
10:35 AM 37.4 °F 28.9 °F 32.0 °F 81% 30.18 in 10.0 mi NW 13.8 mph - N/A   Overcast
10:55 AM 37.4 °F 28.5 °F 32.0 °F 81% 30.18 in 10.0 mi NW 15.0 mph - N/A   Overcast
11:15 AM 37.4 °F 28.5 °F 30.2 °F 75% 30.18 in 10.0 mi NW 15.0 mph - N/A   Overcast
11:35 AM 39.2 °F 30.8 °F 28.4 °F 65% 30.18 in 10.0 mi WNW 15.0 mph - N/A   Mostly Cloudy
11:55 AM 39.2 °F 30.8 °F 30.2 °F 70% 30.18 in 10.0 mi WNW 15.0 mph - N/A   Partly Cloudy
12:15 PM 41.0 °F 33.1 °F 30.2 °F 65% 30.18 in 10.0 mi NW 15.0 mph - N/A   Clear
12:35 PM 41.0 °F 33.1 °F 30.2 °F 65% 30.18 in 10.0 mi NW 15.0 mph - N/A   Clear
12:55 PM 41.0 °F 33.9 °F 30.2 °F 65% 30.17 in 10.0 mi NW 12.7 mph 20.7 mph N/A   Mostly Cloudy
1:15 PM 41.0 °F 33.1 °F 28.4 °F 61% 30.17 in 10.0 mi NW 15.0 mph - N/A   Overcast
1:35 PM 42.8 °F 34.8 °F 28.4 °F 57% 30.17 in 10.0 mi NW 17.3 mph - N/A   Mostly Cloudy
1:55 PM 42.8 °F 35.4 °F 28.4 °F 57% 30.18 in 10.0 mi NW 15.0 mph 20.7 mph N/A   Scattered Clouds
2:15 PM 42.8 °F 35.1 °F 28.4 °F 57% 30.18 in 10.0 mi NW 16.1 mph - N/A   Clear
2:35 PM 42.8 °F 36.2 °F 30.2 °F 61% 30.19 in 10.0 mi WNW 12.7 mph 18.4 mph N/A   Clear
2:55 PM 42.8 °F 36.2 °F 26.6 °F 53% 30.19 in 10.0 mi NW 12.7 mph - N/A   Partly Cloudy
3:15 PM 42.8 °F 37.0 °F 28.4 °F 57% 30.20 in 10.0 mi WNW 10.4 mph - N/A   Partly Cloudy
3:35 PM 41.0 °F 33.5 °F 28.4 °F 61% 30.20 in 10.0 mi West 13.8 mph - N/A   Partly Cloudy
3:55 PM 39.2 °F 32.5 °F 26.6 °F 61% 30.20 in 10.0 mi West 10.4 mph - N/A   Clear
4:15 PM 37.4 °F 31.4 °F 28.4 °F 70% 30.20 in 10.0 mi West 8.1 mph - N/A   Partly Cloudy
4:35 PM 37.4 °F 32.1 °F 30.2 °F 75% 30.20 in 10.0 mi West 6.9 mph - N/A   Mostly Cloudy
4:55 PM 37.4 °F 33.8 °F 30.2 °F 75% 30.20 in 10.0 mi WSW 4.6 mph - N/A   Partly Cloudy
5:15 PM 35.6 °F 30.7 °F 30.2 °F 81% 30.20 in 10.0 mi West 5.8 mph - N/A   Clear
5:35 PM 33.8 °F 28.6 °F 30.2 °F 87% 30.21 in 10.0 mi West 5.8 mph - N/A   Clear
5:55 PM 32.0 °F 26.4 °F 28.4 °F 87% 30.21 in 10.0 mi West 5.8 mph - N/A   Clear
6:15 PM 32.0 °F 26.4 °F 30.2 °F 93% 30.22 in 10.0 mi West 5.8 mph - N/A   Clear
6:35 PM 32.0 °F 24.8 °F 28.4 °F 87% 30.23 in 10.0 mi West 8.1 mph - N/A   Clear
6:55 PM 30.2 °F 23.4 °F 28.4 °F 93% 30.23 in 10.0 mi West 6.9 mph - N/A   Clear
7:15 PM 30.2 °F 23.4 °F 28.4 °F 93% 30.23 in 10.0 mi West 6.9 mph - N/A   Clear
7:35 PM 32.0 °F 24.8 °F 28.4 °F 87% 30.23 in 10.0 mi West 8.1 mph - N/A   Clear
7:55 PM 32.0 °F - 28.4 °F 87% 30.23 in 10.0 mi Calm Calm - N/A   Clear
8:15 PM 30.2 °F 22.6 °F 28.4 °F 93% 30.23 in - SW 8.1 mph - N/A   Unknown
8:35 PM 30.2 °F 22.6 °F 30.2 °F 100% 30.22 in 10.0 mi SW 8.1 mph - N/A   Partly Cloudy
8:55 PM 30.2 °F 25.4 °F 28.4 °F 93% 30.22 in 10.0 mi SSW 4.6 mph - N/A   Clear
9:15 PM 30.2 °F 23.4 °F 28.4 °F 93% 30.22 in 10.0 mi SW 6.9 mph - N/A   Clear
9:35 PM 30.2 °F 22.6 °F 28.4 °F 93% 30.23 in 10.0 mi SW 8.1 mph - N/A   Clear
9:55 PM 32.0 °F 25.6 °F 30.2 °F 93% 30.24 in 10.0 mi SSW 6.9 mph - N/A   Clear
10:15 PM 30.2 °F 25.4 °F 28.4 °F 93% 30.24 in 10.0 mi SW 4.6 mph - N/A   Clear
10:35 PM 30.2 °F 22.6 °F 30.2 °F 100% 30.24 in 10.0 mi SW 8.1 mph - N/A   Clear
10:55 PM 30.2 °F 23.4 °F 28.4 °F 93% 30.24 in 10.0 mi WSW 6.9 mph - N/A   Clear
11:15 PM 32.0 °F 25.6 °F 30.2 °F 93% 30.24 in 10.0 mi WSW 6.9 mph - N/A   Clear
11:35 PM 32.0 °F - 30.2 °F 93% 30.23 in 10.0 mi Calm Calm - N/A   Clear
11:55 PM 32.0 °F 25.6 °F 30.2 °F 93% 30.23 in 10.0 mi WSW 6.9 mph - N/A   Clear